Location: St Paul
(33.4390°N, 83.7350°W)
Time: 18:30:52
(UTC-05:00)

Nadezhda 3 Rocket - Pass Details

Date: 06 October 2017
Orbit: 957 x 1000 km, 82.9° (Epoch: 17 December)

Event Time Altitude Azimuth Distance (km) Brightness Sun altitude
Rises 20:11:04 0° 351° (N) 3,679 7.2 -13.1°
Reaches altitude 10° 20:13:36 10° 350° (N) 2,722 6.5 -13.6°
Maximum altitude 20:19:48 74° 267° (W) 1,004 4.2 -14.9°
Drops below altitude 10° 20:25:55 10° 183° (S) 2,683 6.3 -16.2°
Sets 20:28:24 0° 181° (S) 3,623 7.0 -16.7°
